Tracking 31027 objects as of 19-Jul-2025
HD Live streaming from Space Station
objects crossing your sky now

STARLINK-31842

Track STARLINK-31842 now!
10-day predictions
STARLINK-31842 is classified as:


NORAD ID: 59672
Int'l Code: 2024-084U
Perigee: 489.4 km
Apogee: 491.0 km
Inclination: 43.0 °
Period: 94.3 minutes
Semi major axis: 6861 km
RCS: Unknown
Launch date: May 6, 2024
Source: United States (US)
Launch site: AIR FORCE EASTERN TEST RANGE (AFETR)
Your satellite tracking list
STARLINK-31611
Track 1 satellite(s)




NASA's NSSDC Master Catalog

Two Line Element Set (TLE):
1 59672U 24084U   25199.55096003  .00001139  00000-0  50921-4 0  9996
2 59672  43.0023 280.7157 0001113 271.5869  88.4855 15.27573723 68607
Source of the keplerian elements: AFSPC